Погода Алматы

Поиск расширенной информации на нашем сайте:

Полезная информация:

Новости сайта



02.01.2020
Опубликован Долгосрочный прогноз погоды по городам России и ближнего зарубежья на январь 2020 года.
Карты: Прогноз на январь и февраль 2020 года, Сравнение прогнозируемой аномалии приземной температуры воздуха на январь 2020 года по разным моделям.




Погода Алматы - сегодня

Время (UTC), дата Ветер
(°,м/с) 
Видим.   Явления Облачность Т
(°С)
Тd
(°С)
f(%) Тe
(°С)
Pmin
(гПа)
dP
(гПа)
Po
(мм)
O2
(г/м3)
Тmin Tmax R s Состояние
почвы
15 16.04.21 тихо ()   н/о    8/0 средняя 
[Ac trans]
+15.8 +6.3 53 +16  1014.8  0.6  689  261    +22.5  0.0     
18 16.04.21 тихо ()   н/о    8/0 средняя 
[Ac trans]
+14.8 +4 48 +15  1014.8  -0.3  689  263    +22.5  0.0     
21 16.04.21 тихо ()   н/о    9/0 средняя 
[Ac trans]
+15.2 +5 51 +15  1015.6  0.8  690  262           
00 17.04.21 тихо () {02}  н/о    6/0 средняя 
[Ac trans]
+13 +6.8 66 +13  1017.2  0.8  690  264           
03 17.04.21 тихо ()   20000 м    10/4 600 м кучево-дожд., средняя 
[Cb cap|Ac As]
+14.8 +7.2 60 +15  1017.6  691  263           
06 17.04.21 200 (Ю) 10 км    8/0 верхняя 
[Ci fib]
+18.9 +6.8 45 +20  1015.8  -0.4  691  259  +12.3         
09 17.04.21 300 (СЗ) 20000 м    9/5 1000 м верхняя 
[Cu med, cong|Ci fib]
+20.8 +7.3 42 +21  1014  -1.1  690  257           
12 17.04.21 тихо ()   20000 м  в посл. час ливневой дождь  6/0 верхняя 
[Ci fib]
+19.5 +6.2 42 +20  1014.9  0.5  690  259           
15 17.04.21 тихо ()   н/о  {ливн. осадки}  6/0 верхняя 
[Ci fib]
+16.8 +4.9 45 +17  1016.5  0.5  691  261    +21.5       
18 17.04.21 тихо ()   н/о  {ливн. осадки}  ясно 
+14.5 +4.3 50 +15  1017.6  0.3  691  264    +21.5  0.0     
21 17.04.21 тихо ()   н/о    ясно 
+13 +3.1 51 +13  1016.8  -1.2  690  265           
00 18.04.21 тихо () {03}  н/о    6/0 верхняя 
[Ci]
+11.6 +2.5 54 +12  1017.2  -0.1  690  266           
03 18.04.21 тихо ()   20000 м    8/0 верхняя 
[Ci fib]
+16.4 +4.1 44 +16  1016.2  0.6  691  262           
06 18.04.21 тихо ()   10 км    10/3 1000 м верхняя 
[Cu hum|Ci fib]
+20.4 +6.2 40 +20  1014.7  691  258  +11.3         
09 18.04.21 210 (ЮЗ) 10 км    10/8 600 м кучево-дожд., средняя 
[Cb cap|Ac As]
+20 +3.9 35 +20  1014.4  -0.5  690  258           
12 18.04.21 200 (Ю) 10 км    10/3 600 м кучево-дожд., средняя 
[Cb cap|Ac und]
+18.4 +3.7 38 +20  1014.9  -0.1  690  260           
15 18.04.21 220 (ЮЗ) н/о    10/0 средняя 
[Ac und]
+15.2 +5 51 +16  1018.4  2.2  692  263    +21.6       
18 18.04.21 110 (В) н/о  слаб. ливневой дождь  10/10 600 м кучево-дожд. 
[Cb cap]
+12.6 +4.9 59 +13  1020.2  0.8  692  266    +21.6       
21 18.04.21 200 (Ю) н/о  слаб. ливневой дождь  10/10 600 м кучево-дожд. 
[Cb cap]
+11.3 +5.7 68 +12  1019.9  -0.6  692  267           
00 19.04.21 тихо () {03}  н/о  {ливн. осадки}  10/10 600 м кучево-дожд. 
[Cb cap|Ac und]
+13.8 +2.8 47 +14  1017.5  -1.5  691  264           
03 19.04.21 220 (ЮЗ) 20000 м    ясно 
+17.2 +0.8 33 +19  1016.1  -0.2  691  262           
06 19.04.21 230 (ЮЗ) 20000 м    10/6 600 м кучево-дожд., верхняя 
[Cb cap|Ci fib]
+20 -1.1 24 +20  1014.3  -0.8  690  259  +11.2       
09 19.04.21 230 (ЮЗ) 10 км    10/4 600 м кучево-дожд., средняя, верхняя 
[Cb cap|Ac As|Ci fib]
+21.4 +1.3 26 +21  1011.7  -1.9  689  257           
12 19.04.21 230 (ЮЗ) 10 км    10/4 600 м кучево-дожд., средняя 
[Cb cap|Ac As]
+19.9 -1.2 24 +21  1011.2  -0.9  688  258           
15 19.04.21 140 (ЮВ) н/о    8/0 верхняя 
[Ci fib]
+16.8 +0.1 32 +18  1012.7  0.4  688  261    +22.4       
Время (UTC), дата Ветер
(°,м/с) 
Видим.   Явления Облачность Т
(°С)
Тd
(°С)
f(%) Тe
(°С)
Pmin
(гПа)
dP
(гПа)
Po
(мм)
O2
(г/м3)
Тmin Tmax R s Состояние
почвы

Для получения пояснительной информации подведите курсор к названию столбца.

ПОГОДА Алматы - архив

Всё, что Вы хотите узнать о погоде Алматы - удобно и подробно!

Выберите нужную дату (начиная с 1 января 2019* года) и нажмите кнопку "Найти".
Будут отображены архивные сводки погоды по пункту Алматы, начиная с указанной даты.


Отображать данные в формате CSV (для использования в таблицах Excel)


Внимание! Наш архив погоды предназначен исключительно для личного некоммерческого использования в познавательных целях. Если Вам необходимы официальные справки о состоянии погоды (для производственных, юридических, коммерческих и т.п. целей), обращайтесь в органы Росгидромета.

*Примечание: данная дата относится к архиву по метеостанциям СССР (Россия, СНГ, Балтия).
Архив по метеостанциям Зарубежной Европы и Азии (кроме Китая) хранится 10 дней, по другим регионам земного шара (Китай, Африка, Америка, Австралия, Океания) - 1 день.

Алматы - район местоположения метеостанции


Название, широта, долгота, высота метеостанции:
Алматы (город) 43.2°ш. 76.9°д. 851 м над ур. моря [Казахстан]

Дополнительная информация

В oтличие oт бoльшинства пoгoдных сайтoв мы публикуем пoдрoбную метеoинфoрмацию в детальнoм прoфессиoнальнoм фoрмате.

Характеристики температуры и влажнoсти вoздуха измеряются на высoте 2 м в тени вдали oт зданий и деревьев.
Скoрoсть ветра измеряется на высoте 10 м (на урoвне рoста челoвека скoрoсть ветра ниже в 1.5-2 раза). Если метеoстанция нахoдится в гoрoде или в лесу, тo скoрoсть ветра занижена на 2-4 м/с пo сравнению с oткрытым местoм. Скoрoсть ветра над акватoриями крупных рек и oзёр, а также на вершинах хoлмoв на 2-5 м/с выше, чем в oбычных услoвиях.
Атмoсфернoе давление в разных тoчках местнoсти мoжет значительнo oтличаться oт давления на метеoстанции, в зависимoсти oт услoвий рельефа (при пoдъёме на 10 м давление пoнижается примернo на 1 мм рт.ст.).